Home   Weather   Meschede   Past weeks

Flag for Germany Past Weather in Meschede, North Rhine-Westphalia, Germany — Yesterday and Last 2 Weeks

55 °F

Partly sunny.

Feels Like: 53 °F
Forecast: 51 / 54 °F
Wind: 8 mph from West

Location: Paderborn / Lippstadt

Current Time: Oct 27, 2016 at 1:19:09 PM

Latest Report: Oct 27, 2016 at 12:50 PM

Visibility: N/A

Pressure: 30.48 "Hg

Humidity: 77%

Dew Point: 48 °F

Location of MeschedeLocation

Past Weather in Meschede — Graph


Meschede Temperature Yesterday

Maximum temperature yesterday: 50 °F (at 2:20 PM)
Minimum temperature yesterday: 45 °F (at 5:20 AM)
Average temperature yesterday: 46 °F

High & Low Weather Summary for the Past Weeks

High66 °F (Oct 16, 2:50 PM)100% (Oct 21, 5:20 AM)30.48 "Hg (Oct 21, 5:20 AM)
Low37 °F (Oct 23, 6:50 AM)49% (Oct 16, 2:50 PM)29.68 "Hg (Oct 15, 1:50 AM)
Average48 °F83%30.03 "Hg
* Reported Oct 12 11:20 AM — Oct 27 11:50 AM, Meschede, Weather by CustomWeather, © 2016

Note: Actual official high and low records may vary slightly from our data, if they occured in-between our weather recording intervals... More about our weather records


Meschede Weather History for the Previous 24 Hours

Scroll right to see more
Time TempWeatherWind HumidityBarometerVisibility
11:50 AM
Thu, Oct 27
54 °FPartly sunny.8 mph77%30.48 "HgN/A
11:20 AM54 °FPartly sunny.9 mph77%30.48 "Hg6 mi
10:50 AM52 °FPartly sunny.9 mph82%30.48 "Hg4 mi
10:20 AM52 °FPartly sunny.9 mph82%30.45 "Hg4 mi
9:50 AM52 °FDrizzle. Partly sunny.10 mph82%30.45 "Hg4 mi
9:20 AM50 °FDrizzle. Partly sunny.9 mph88%30.45 "Hg3 mi
8:50 AM50 °FDrizzle. Partly sunny.12 mph88%30.45 "Hg3 mi
8:20 AM50 °FBroken clouds.12 mph82%30.45 "Hg5 mi
7:50 AM50 °FPassing clouds.10 mph82%30.42 "HgN/A
7:20 AM50 °FPartly cloudy.9 mph82%30.42 "HgN/A
6:50 AM50 °FPartly cloudy.10 mph82%30.42 "HgN/A
6:20 AM50 °FPassing clouds.9 mph82%30.42 "Hg6 mi
5:50 AM50 °FPassing clouds.8 mph82%30.42 "HgN/A
5:20 AM50 °FPassing clouds.7 mph82%30.42 "Hg5 mi
4:50 AM50 °FPassing clouds.8 mph82%30.42 "Hg4 mi
4:20 AM48 °FPassing clouds.7 mph87%30.42 "Hg4 mi
3:50 AM48 °FPassing clouds.7 mph87%30.42 "Hg4 mi
3:20 AM48 °FPassing clouds.7 mph87%30.42 "Hg4 mi
2:50 AM48 °FOvercast.8 mph87%30.42 "Hg4 mi
2:20 AM48 °FPassing clouds.8 mph82%30.42 "Hg4 mi
1:50 AM46 °FPassing clouds.7 mph87%30.42 "Hg4 mi
1:20 AM48 °FPassing clouds.8 mph82%30.39 "Hg5 mi
12:50 AM46 °FPassing clouds.7 mph87%30.42 "Hg5 mi
12:20 AM46 °FPassing clouds.6 mph87%30.42 "Hg4 mi
11:50 PM
Wed, Oct 26
45 °FPassing clouds.6 mph93%30.42 "Hg5 mi
11:20 PM45 °FPassing clouds.3 mph87%30.42 "Hg5 mi
10:50 PM45 °FPassing clouds.5 mph87%30.42 "Hg4 mi
10:20 PM45 °FPassing clouds.3 mph87%30.42 "Hg4 mi
9:50 PM45 °FPassing clouds.2 mph87%30.42 "Hg5 mi
9:20 PM45 °FPassing clouds.1 mph87%30.39 "Hg5 mi
8:50 PM45 °FClear.3 mph87%30.39 "Hg5 mi
8:20 PM45 °FClear.1 mph87%30.39 "Hg5 mi
7:50 PM46 °FPassing clouds.2 mph82%30.39 "Hg5 mi
7:20 PM46 °FPartly cloudy.1 mph82%30.39 "Hg5 mi
6:50 PM46 °FPartly cloudy.2 mph82%30.39 "Hg5 mi
6:20 PM48 °FPartly cloudy.1 mph76%30.39 "Hg5 mi
5:50 PM48 °FBroken clouds.1 mph76%30.36 "Hg5 mi
5:20 PM48 °FBroken clouds.1 mph76%30.36 "HgN/A
4:50 PM48 °FBroken clouds.3 mph76%30.36 "HgN/A
4:20 PM48 °FBroken clouds.5 mph71%30.36 "HgN/A
3:50 PM48 °FPartly sunny.5 mph71%30.36 "HgN/A
3:20 PM48 °FPartly sunny.6 mph71%30.36 "HgN/A
2:50 PM48 °FPartly sunny.5 mph71%30.36 "HgN/A
2:20 PM50 °FPartly sunny.5 mph62%30.36 "HgN/A
1:50 PM48 °FPartly sunny.7 mph66%30.36 "HgN/A
1:20 PM48 °FPartly sunny.6 mph66%30.39 "HgN/A
Weather by CustomWeather, © 2016

See weather overviewHow to use our weather pages